Flag for U.S.A. Weather past 2 weeks in Laredo, Texas, U.S.A.

Now
80 °F

Fog.


Feels Like: 85 °F
Forecast: 69 / 90 °F
Wind: 14 mph from Southeast

Location: Laredo International Airport

Current Time: Apr 27, 2015 at 1:35:58 AM

Latest Report: Apr 27, 2015 at 12:56 AM


Visibility: 5 mi

Pressure: 29.46 "Hg

Humidity: 88%

Dew point: 76 °F

Location of LaredoLocation

Historic Weather in Laredo — Graph

°F

Laredo temperature yesterday

Maximum temperature yesterday: 94 °F (at 4:56 PM)
Minimum temperature yesterday: 74 °F (at 3:56 AM)
Average temperature yesterday: 82 °F

Past Weeks' High & Low Weather Summary

 TemperatureHumidityPressure
High94 °F (Apr 26, 4:56 PM)100% (Apr 12, 5:56 AM)30.10 "Hg (Apr 12, 5:56 AM)
Low62 °F (Apr 13, 5:56 AM)32% (Apr 25, 4:56 PM)29.47 "Hg (Apr 26, 5:56 PM)
Average75 °F81%29.83 "Hg
* Reported Apr 11 11:56 PM — Apr 26 11:56 PM, Laredo, Weather by CustomWeather, © 2015

Note: Actual official high and low records may vary slightly from our data, if they occured in-between our weather recording intervals... More about our weather records

Advertising

Laredo weather history for previous 24 hours

 ConditionsComfort  
Time TempWeatherWind HumidityBarometerVisibility
11:56 PM
Sun, Apr 26
81 °FClear.15 mph85%29.47 "Hg6 mi
10:56 PM82 °FClear.13 mph79%29.48 "Hg7 mi
9:56 PM84 °FClear.14 mph72%29.49 "Hg9 mi
8:56 PM84 °FSunny.10 mph68%29.50 "Hg10 mi
7:56 PM87 °FSunny.10 mph63%29.49 "Hg9 mi
6:56 PM90 °FSunny.12 mph57%29.48 "Hg10 mi
5:56 PM92 °FSunny.10 mph47%29.47 "Hg10 mi
4:56 PM94 °FSunny.12 mph43%29.49 "Hg10 mi
3:56 PM93 °FPassing clouds.8 mph47%29.52 "Hg10 mi
2:56 PM92 °FSunny.7 mph49%29.56 "Hg10 mi
1:56 PM90 °FPassing clouds.No wind57%29.61 "Hg10 mi
12:56 PM87 °FPassing clouds.6 mph65%29.63 "Hg9 mi
11:56 AM85 °FPassing clouds.6 mph70%29.67 "Hg8 mi
10:56 AM81 °FOvercast.7 mph79%29.68 "Hg8 mi
9:56 AM78 °FOvercast.7 mph85%29.69 "Hg7 mi
8:56 AM77 °FFog.9 mph90%29.67 "Hg6 mi
7:56 AM76 °FFog.12 mph94%29.66 "Hg3 mi
6:56 AM75 °FFog.8 mph97%29.65 "Hg3 mi
5:56 AM76 °FFog.3 mph90%29.65 "Hg5 mi
4:56 AM75 °FFog.7 mph94%29.65 "Hg5 mi
3:56 AM74 °FFog.8 mph94%29.69 "Hg6 mi
2:56 AM75 °FFog.10 mph91%29.69 "Hg6 mi
1:56 AM75 °FClear.9 mph94%29.68 "Hg7 mi
Weather by CustomWeather, © 2015

See weather overviewHow to use our weather pages